WZZ1287 EDSB-LZIB

Flight info

Callsign WZZ1287
Flight time 1h 5m
Altitude 35000
Route GAGSI1Y GAGSI Y712 LBU DCT MAREG DCT KOXER
Aircraft A320/M-SDE1E2E3FGIJ1J4RWXY/LB1

Departure

Time 2026-05-08 20:05
Airport Karlsruhe Baden-Baden Airport (EDSB)

Arrival

Time 2026-05-08 21:11
Airport M. R. Štefánik Airport (LZIB)
Time Latitude Longitude Altitude Speed Heading
2026-05-08 19:39 48.78119 8.08861 413 ft 0 kts 159°
2026-05-08 20:00 48.78111 8.08846 412 ft 4 kts 245°
2026-05-08 20:00 48.78118 8.08776 410 ft 8 kts 248°
2026-05-08 20:00 48.78106 8.08690 412 ft 10 kts 289°
2026-05-08 20:01 48.78145 8.08591 411 ft 12 kts 298°
2026-05-08 20:01 48.78099 8.08496 385 ft 13 kts 211°
2026-05-08 20:01 48.78012 8.08415 410 ft 17 kts 211°
2026-05-08 20:01 48.77898 8.08308 412 ft 21 kts 212°
2026-05-08 20:02 48.77768 8.08186 412 ft 23 kts 211°
2026-05-08 20:02 48.77623 8.08052 410 ft 26 kts 211°
2026-05-08 20:02 48.77465 8.07904 412 ft 28 kts 212°
2026-05-08 20:02 48.77293 8.07743 409 ft 30 kts 212°
2026-05-08 20:03 48.77127 8.07585 412 ft 28 kts 212°
2026-05-08 20:03 48.76954 8.07424 412 ft 30 kts 212°
2026-05-08 20:03 48.76798 8.07278 412 ft 24 kts 211°
2026-05-08 20:03 48.76734 8.07136 412 ft 17 kts 294°
2026-05-08 20:04 48.76792 8.07007 411 ft 12 kts 324°
2026-05-08 20:04 48.76858 8.07041 412 ft 0 kts 32°
2026-05-08 20:04 48.76916 8.07096 412 ft 31 kts 32°
2026-05-08 20:05 48.77314 8.07469 408 ft 99 kts 32°
2026-05-08 20:05 48.78050 8.08159 410 ft 148 kts 32°
2026-05-08 20:05 48.78964 8.09036 884 ft 156 kts 34°
2026-05-08 20:05 48.79870 8.09941 1560 ft 155 kts 34°
2026-05-08 20:06 48.80806 8.10844 2039 ft 168 kts 36°
2026-05-08 20:06 48.81849 8.11829 2396 ft 186 kts 35°
2026-05-08 20:06 48.82950 8.13056 2663 ft 208 kts 53°
2026-05-08 20:06 48.83528 8.15144 3048 ft 229 kts 84°
2026-05-08 20:07 48.83643 8.17642 3600 ft 248 kts 85°
2026-05-08 20:07 48.83756 8.19425 4156 ft 255 kts 85°
2026-05-08 20:07 48.83953 8.22138 5003 ft 262 kts 85°
2026-05-08 20:07 48.84235 8.25853 6123 ft 272 kts 85°
2026-05-08 20:08 48.84382 8.27800 6683 ft 277 kts 85°
2026-05-08 20:08 48.84668 8.31708 7769 ft 285 kts 85°
2026-05-08 20:08 48.84882 8.34731 8601 ft 291 kts 85°
2026-05-08 20:08 48.85097 8.37821 9419 ft 298 kts 85°
2026-05-08 20:09 48.85244 8.39950 9950 ft 302 kts 85°
2026-05-08 20:09 48.85468 8.43190 10453 ft 318 kts 85°
2026-05-08 20:09 48.85702 8.46637 10825 ft 336 kts 85°
2026-05-08 20:09 48.85945 8.50212 11482 ft 343 kts 85°
2026-05-08 20:10 48.86190 8.53838 12223 ft 347 kts 85°
2026-05-08 20:10 48.86435 8.57499 12969 ft 351 kts 85°
2026-05-08 20:10 48.86682 8.61210 13722 ft 354 kts 84°
2026-05-08 20:10 48.86930 8.64948 14415 ft 358 kts 84°
2026-05-08 20:11 48.87181 8.68727 15061 ft 361 kts 84°
2026-05-08 20:11 48.87432 8.72527 15719 ft 363 kts 84°
2026-05-08 20:11 48.87684 8.76367 16351 ft 367 kts 85°
2026-05-08 20:11 48.87935 8.80235 16979 ft 370 kts 85°
2026-05-08 20:12 48.88186 8.84144 17623 ft 373 kts 85°
2026-05-08 20:12 48.88437 8.88027 18268 ft 376 kts 85°
2026-05-08 20:12 48.88696 8.92048 18853 ft 379 kts 85°
2026-05-08 20:12 48.88947 8.95990 19410 ft 382 kts 85°
2026-05-08 20:13 48.89203 9.00024 19981 ft 385 kts 85°
2026-05-08 20:13 48.89458 9.04086 20547 ft 388 kts 85°
2026-05-08 20:13 48.89718 9.08233 21097 ft 391 kts 85°
2026-05-08 20:13 48.89974 9.12309 21614 ft 394 kts 85°
2026-05-08 20:14 48.90236 9.16466 22132 ft 397 kts 85°
2026-05-08 20:14 48.90497 9.20653 22643 ft 400 kts 85°
2026-05-08 20:14 48.90754 9.24872 23140 ft 403 kts 86°
2026-05-08 20:14 48.91006 9.29130 23627 ft 406 kts 86°
2026-05-08 20:15 48.91222 9.33428 24061 ft 409 kts 90°
2026-05-08 20:15 48.91079 9.37742 24480 ft 410 kts 97°
2026-05-08 20:15 48.90806 9.42081 24898 ft 413 kts 97°
2026-05-08 20:15 48.90533 9.46443 25308 ft 416 kts 97°
2026-05-08 20:16 48.90259 9.50832 25722 ft 419 kts 97°
2026-05-08 20:16 48.89984 9.55264 26143 ft 422 kts 97°
2026-05-08 20:16 48.89707 9.59719 26544 ft 425 kts 97°
2026-05-08 20:16 48.89428 9.64202 26949 ft 428 kts 97°
2026-05-08 20:17 48.89144 9.68715 27331 ft 431 kts 97°
2026-05-08 20:17 48.88855 9.73272 27705 ft 435 kts 97°
2026-05-08 20:17 48.88562 9.77861 28081 ft 438 kts 97°
2026-05-08 20:17 48.88264 9.82473 28464 ft 440 kts 97°
2026-05-08 20:18 48.87964 9.87111 28843 ft 443 kts 97°
2026-05-08 20:18 48.87658 9.91788 29213 ft 446 kts 97°
2026-05-08 20:18 48.87349 9.96492 29592 ft 449 kts 97°
2026-05-08 20:18 48.87036 10.01220 30020 ft 451 kts 98°
2026-05-08 20:19 48.86718 10.05961 30389 ft 453 kts 98°
2026-05-08 20:19 48.86394 10.10736 30715 ft 456 kts 97°
2026-05-08 20:19 48.86063 10.15553 31018 ft 460 kts 97°
2026-05-08 20:19 48.85730 10.20397 31336 ft 463 kts 97°
2026-05-08 20:20 48.85397 10.25265 31686 ft 464 kts 97°
2026-05-08 20:20 48.85063 10.30141 32137 ft 464 kts 97°
2026-05-08 20:20 48.84731 10.35001 32587 ft 463 kts 97°
2026-05-08 20:20 48.84393 10.39870 33032 ft 463 kts 97°
2026-05-08 20:21 48.84053 10.44735 33480 ft 463 kts 97°
2026-05-08 20:21 48.83711 10.49592 33925 ft 463 kts 97°
2026-05-08 20:21 48.83366 10.54443 34309 ft 463 kts 97°
2026-05-08 20:21 48.83018 10.59300 34674 ft 462 kts 97°
2026-05-08 20:22 48.82670 10.64153 35008 ft 463 kts 97°
2026-05-08 20:22 48.82324 10.68952 35110 ft 464 kts 97°
2026-05-08 20:22 48.81614 10.78660 35115 ft 462 kts 97°
2026-05-08 20:23 48.80893 10.88346 35106 ft 462 kts 97°
2026-05-08 20:23 48.80170 10.98042 35087 ft 462 kts 97°
2026-05-08 20:24 48.79437 11.07743 35085 ft 463 kts 97°
2026-05-08 20:24 48.78700 11.17459 35085 ft 464 kts 97°
2026-05-08 20:25 48.77949 11.27164 35112 ft 464 kts 97°
2026-05-08 20:25 48.77193 11.36884 35116 ft 464 kts 97°
2026-05-08 20:26 48.76425 11.46598 35117 ft 464 kts 98°
2026-05-08 20:26 48.75652 11.56315 35121 ft 465 kts 98°
2026-05-08 20:27 48.74865 11.66039 35124 ft 465 kts 98°
2026-05-08 20:27 48.74074 11.75751 35124 ft 465 kts 98°
2026-05-08 20:28 48.73274 11.85469 35117 ft 465 kts 98°
2026-05-08 20:28 48.72465 11.95181 35115 ft 465 kts 98°
2026-05-08 20:29 48.71641 12.04876 35115 ft 465 kts 98°
2026-05-08 20:29 48.70816 12.14583 35115 ft 465 kts 98°
2026-05-08 20:30 48.69991 12.24281 35117 ft 464 kts 98°
2026-05-08 20:30 48.69148 12.33969 35097 ft 464 kts 99°
2026-05-08 20:31 48.68299 12.43644 35108 ft 464 kts 99°
2026-05-08 20:31 48.67441 12.53322 35111 ft 464 kts 99°
2026-05-08 20:32 48.66573 12.62984 35105 ft 463 kts 99°
2026-05-08 20:32 48.65708 12.72575 35107 ft 463 kts 99°
2026-05-08 20:33 48.64824 12.82224 35109 ft 463 kts 99°
2026-05-08 20:33 48.63939 12.91856 35109 ft 463 kts 99°
2026-05-08 20:34 48.63045 13.01495 35099 ft 463 kts 99°
2026-05-08 20:35 48.61686 13.15930 35092 ft 463 kts 100°
2026-05-08 20:35 48.60779 13.25559 35089 ft 463 kts 100°
2026-05-08 20:36 48.59862 13.35195 35088 ft 463 kts 101°
2026-05-08 20:36 48.58923 13.44813 35093 ft 463 kts 101°
2026-05-08 20:37 48.57982 13.54443 35097 ft 463 kts 101°
2026-05-08 20:37 48.57031 13.64083 35087 ft 464 kts 101°
2026-05-08 20:38 48.56074 13.73714 35084 ft 465 kts 101°
2026-05-08 20:38 48.55103 13.83367 35096 ft 465 kts 101°
2026-05-08 20:39 48.54131 13.93023 35093 ft 465 kts 101°
2026-05-08 20:39 48.53151 14.02671 35097 ft 465 kts 102°
2026-05-08 20:40 48.52164 14.12312 35108 ft 465 kts 102°
2026-05-08 20:40 48.51160 14.21955 35108 ft 465 kts 102°
2026-05-08 20:41 48.50146 14.31576 35110 ft 465 kts 102°
2026-05-08 20:41 48.49144 14.41124 35091 ft 464 kts 102°
2026-05-08 20:42 48.48124 14.50719 35110 ft 463 kts 102°
2026-05-08 20:42 48.47099 14.60306 35117 ft 463 kts 102°
2026-05-08 20:43 48.46063 14.69874 35092 ft 463 kts 102°
2026-05-08 20:43 48.45538 14.74679 34447 ft 469 kts 103°
2026-05-08 20:43 48.45004 14.79545 33680 ft 472 kts 103°
2026-05-08 20:43 48.44473 14.84408 33064 ft 469 kts 103°
2026-05-08 20:44 48.43943 14.89231 32544 ft 465 kts 103°
2026-05-08 20:44 48.43414 14.94013 32028 ft 461 kts 103°
2026-05-08 20:44 48.42891 14.98752 31521 ft 457 kts 103°
2026-05-08 20:44 48.42371 15.03446 31016 ft 453 kts 103°
2026-05-08 20:45 48.41851 15.08098 30441 ft 446 kts 103°
2026-05-08 20:45 48.41503 15.11190 29889 ft 440 kts 102°
2026-05-08 20:45 48.40836 15.17096 29310 ft 428 kts 102°
2026-05-08 20:45 48.40338 15.21491 28840 ft 423 kts 102°
2026-05-08 20:46 48.39846 15.25835 28408 ft 419 kts 102°
2026-05-08 20:46 48.39357 15.30131 27986 ft 414 kts 102°
2026-05-08 20:46 48.38871 15.34377 27568 ft 411 kts 102°
2026-05-08 20:46 48.38388 15.38600 27144 ft 408 kts 102°
2026-05-08 20:47 48.37905 15.42783 26730 ft 405 kts 102°
2026-05-08 20:47 48.37424 15.46943 26302 ft 402 kts 102°
2026-05-08 20:47 48.36944 15.51076 25876 ft 400 kts 102°
2026-05-08 20:47 48.36466 15.55182 25434 ft 398 kts 102°
2026-05-08 20:48 48.35952 15.59281 24782 ft 402 kts 103°
2026-05-08 20:48 48.35360 15.63377 24316 ft 400 kts 104°
2026-05-08 20:48 48.34723 15.67449 23844 ft 398 kts 105°
2026-05-08 20:48 48.34075 15.71482 23343 ft 396 kts 105°
2026-05-08 20:49 48.33430 15.75495 22884 ft 393 kts 105°
2026-05-08 20:49 48.32799 15.79470 22407 ft 389 kts 105°
2026-05-08 20:49 48.32182 15.83405 21945 ft 386 kts 104°
2026-05-08 20:49 48.31578 15.87315 21487 ft 382 kts 104°
2026-05-08 20:50 48.30982 15.91189 21025 ft 379 kts 104°
2026-05-08 20:50 48.30392 15.95030 20558 ft 376 kts 104°
2026-05-08 20:50 48.29802 15.98834 20114 ft 373 kts 104°
2026-05-08 20:50 48.29213 16.02610 19663 ft 371 kts 104°
2026-05-08 20:51 48.28628 16.06370 19207 ft 369 kts 104°
2026-05-08 20:51 48.28046 16.10108 18762 ft 367 kts 104°
2026-05-08 20:51 48.27464 16.13824 18304 ft 365 kts 104°
2026-05-08 20:51 48.26880 16.17522 17826 ft 362 kts 104°
2026-05-08 20:52 48.26301 16.21166 17387 ft 359 kts 104°
2026-05-08 20:52 48.25727 16.24788 16953 ft 356 kts 104°
2026-05-08 20:52 48.25158 16.28387 16519 ft 353 kts 104°
2026-05-08 20:52 48.24594 16.31945 16090 ft 350 kts 104°
2026-05-08 20:53 48.24032 16.35479 15668 ft 348 kts 104°
2026-05-08 20:53 48.23475 16.38991 15247 ft 346 kts 104°
2026-05-08 20:53 48.22919 16.42469 14832 ft 345 kts 104°
2026-05-08 20:53 48.22361 16.45955 14406 ft 343 kts 103°
2026-05-08 20:54 48.21804 16.49425 13985 ft 342 kts 103°
2026-05-08 20:54 48.21246 16.52881 13536 ft 340 kts 103°
2026-05-08 20:54 48.20692 16.56309 13119 ft 337 kts 103°
2026-05-08 20:54 48.20329 16.58557 12846 ft 335 kts 103°
2026-05-08 20:55 48.19782 16.61940 12437 ft 333 kts 103°
2026-05-08 20:55 48.19238 16.65302 11975 ft 332 kts 103°
2026-05-08 20:55 48.18692 16.68665 11540 ft 331 kts 104°
2026-05-08 20:55 48.18148 16.72006 11133 ft 329 kts 104°
2026-05-08 20:56 48.17605 16.75336 10729 ft 327 kts 104°
2026-05-08 20:56 48.17076 16.78589 10612 ft 315 kts 104°
2026-05-08 20:56 48.16567 16.81718 10128 ft 306 kts 104°
2026-05-08 20:56 48.16063 16.84796 9552 ft 301 kts 104°
2026-05-08 20:57 48.15570 16.87790 9131 ft 292 kts 104°
2026-05-08 20:57 48.15083 16.90742 8760 ft 293 kts 104°
2026-05-08 20:57 48.14593 16.93707 8394 ft 293 kts 104°
2026-05-08 20:57 48.14105 16.96661 8025 ft 293 kts 104°
2026-05-08 20:58 48.13616 16.99627 7657 ft 293 kts 104°
2026-05-08 20:58 48.13131 17.02585 7334 ft 291 kts 103°
2026-05-08 20:58 48.12946 17.05591 6987 ft 291 kts 87°
2026-05-08 20:58 48.13255 17.08549 6848 ft 285 kts 78°
2026-05-08 20:59 48.13650 17.11453 6758 ft 285 kts 78°
2026-05-08 20:59 48.14033 17.14365 6665 ft 285 kts 79°
2026-05-08 20:59 48.14408 17.17265 6561 ft 284 kts 79°
2026-05-08 20:59 48.14781 17.20175 6456 ft 284 kts 79°
2026-05-08 21:00 48.15155 17.23073 6344 ft 283 kts 79°
2026-05-08 21:00 48.15530 17.25969 6240 ft 283 kts 79°
2026-05-08 21:00 48.15904 17.28855 6123 ft 282 kts 79°
2026-05-08 21:00 48.16276 17.31704 6022 ft 275 kts 79°
2026-05-08 21:01 48.16629 17.34474 5902 ft 266 kts 82°
2026-05-08 21:01 48.16637 17.37165 5726 ft 252 kts 99°
2026-05-08 21:01 48.16173 17.39644 5335 ft 245 kts 115°
2026-05-08 21:01 48.15290 17.41806 5009 ft 243 kts 131°
2026-05-08 21:02 48.14136 17.43626 4722 ft 241 kts 135°
2026-05-08 21:02 48.12981 17.45394 4411 ft 240 kts 135°
2026-05-08 21:02 48.11805 17.47204 4106 ft 239 kts 134°
2026-05-08 21:02 48.10665 17.48966 3816 ft 238 kts 134°
2026-05-08 21:03 48.09512 17.50746 3533 ft 237 kts 134°
2026-05-08 21:03 48.08371 17.52505 3297 ft 233 kts 134°
2026-05-08 21:03 48.07263 17.54205 3169 ft 224 kts 134°
2026-05-08 21:03 48.06016 17.55491 3066 ft 215 kts 159°
2026-05-08 21:04 48.04557 17.55803 3001 ft 213 kts 187°
2026-05-08 21:04 48.03162 17.55084 3007 ft 213 kts 215°
2026-05-08 21:04 48.02170 17.53562 3006 ft 202 kts 242°
2026-05-08 21:04 48.01732 17.51611 3008 ft 198 kts 267°
2026-05-08 21:05 48.01856 17.49590 3012 ft 196 kts 282°
2026-05-08 21:05 48.02113 17.47597 3010 ft 195 kts 283°
2026-05-08 21:05 48.02364 17.45600 3009 ft 195 kts 283°
2026-05-08 21:05 48.02786 17.43700 3006 ft 193 kts 301°
2026-05-08 21:06 48.03583 17.42098 3010 ft 192 kts 313°
2026-05-08 21:06 48.04491 17.40634 3008 ft 193 kts 315°
2026-05-08 21:06 48.05414 17.39199 3043 ft 186 kts 315°
2026-05-08 21:06 48.06269 17.37878 3006 ft 169 kts 315°
2026-05-08 21:07 48.07078 17.36630 2858 ft 166 kts 316°
2026-05-08 21:07 48.07883 17.35388 2664 ft 165 kts 316°
2026-05-08 21:07 48.08682 17.34156 2452 ft 165 kts 316°
2026-05-08 21:07 48.09482 17.32921 2236 ft 165 kts 316°
2026-05-08 21:08 48.10270 17.31702 2032 ft 157 kts 317°
2026-05-08 21:08 48.10998 17.30577 1831 ft 146 kts 318°
2026-05-08 21:08 48.11686 17.29512 1638 ft 141 kts 317°
2026-05-08 21:08 48.12366 17.28462 1437 ft 140 kts 316°
2026-05-08 21:09 48.13039 17.27417 1247 ft 139 kts 316°
2026-05-08 21:09 48.13700 17.26374 1044 ft 137 kts 316°
2026-05-08 21:09 48.14360 17.25355 877 ft 136 kts 316°
2026-05-08 21:09 48.15015 17.24329 685 ft 136 kts 315°
2026-05-08 21:10 48.15675 17.23332 488 ft 133 kts 317°
2026-05-08 21:10 48.16308 17.22365 424 ft 118 kts 315°
2026-05-08 21:10 48.16761 17.21661 428 ft 69 kts 314°
2026-05-08 21:10 48.17040 17.21231 422 ft 54 kts 314°
2026-05-08 21:11 48.17287 17.20843 420 ft 49 kts 314°
2026-05-08 21:11 48.17495 17.20519 426 ft 26 kts 313°
2026-05-08 21:11 48.17516 17.20361 427 ft 17 kts 233°
2026-05-08 21:11 48.17407 17.20308 420 ft 19 kts 167°
2026-05-08 21:12 48.17306 17.20431 423 ft 20 kts 137°
2026-05-08 21:12 48.17221 17.20556 427 ft 13 kts 144°
2026-05-08 21:12 48.17134 17.20527 422 ft 15 kts 223°
2026-05-08 21:12 48.17053 17.20406 423 ft 18 kts 225°
2026-05-08 21:13 48.16965 17.20280 428 ft 12 kts 222°
2026-05-08 21:13 48.16946 17.20214 422 ft 7 kts 292°
2026-05-08 21:13 48.16973 17.20175 427 ft 1 kts 315°
2026-05-08 21:13 48.16976 17.20171 427 ft 0 kts 315°